TimeMST,TemperatureF,Dew PointF,Humidity,Sea Level PressureIn,VisibilityMPH,Wind Direction,Wind SpeedMPH,Gust SpeedMPH,PrecipitationIn,Events,Conditions,WindDirDegrees,DateUTC
12:55 AM,33.1,20.3,59,29.62,10.0,NW,5.8,-,N/A,,Clear,310,2012-11-09 07:55:00
2:55 AM,34.3,21.9,60,29.60,10.0,North,12.7,-,N/A,,Partly Cloudy,10,2012-11-09 09:55:00
3:55 AM,37.6,22.3,54,29.58,10.0,Variable,6.9,-,N/A,,Scattered Clouds,0,2012-11-09 10:55:00
4:55 AM,39.7,20.5,46,29.55,10.0,NNW,5.8,-,N/A,,Clear,340,2012-11-09 11:55:00
5:55 AM,39.2,19.2,45,29.56,10.0,ENE,5.8,-,N/A,,Clear,60,2012-11-09 12:55:00
6:55 AM,36.3,19.8,51,29.63,10.0,North,11.5,-,N/A,,Clear,10,2012-11-09 13:55:00
7:55 AM,45.3,20.7,38,29.57,10.0,Variable,5.8,-,N/A,,Clear,0,2012-11-09 14:55:00
8:55 AM,54.7,22.8,29,29.52,10.0,NNE,5.8,-,N/A,,Clear,30,2012-11-09 15:55:00
9:55 AM,60.8,26.2,27,29.51,10.0,West,18.4,33.4,N/A,,Clear,280,2012-11-09 16:55:00
10:55 AM,62.8,22.8,22,29.49,10.0,WNW,21.9,31.1,N/A,,Clear,290,2012-11-09 17:55:00
11:55 AM,63.0,19.0,18,29.49,10.0,WNW,17.3,27.6,N/A,,Clear,290,2012-11-09 18:55:00
12:13 PM,64.4,19.4,18,29.45,10.0,SW,18.4,32.2,N/A,,Clear,220,2012-11-09 19:13:00
12:55 PM,66.4,17.8,16,29.43,10.0,SE,17.3,20.7,N/A,,Clear,130,2012-11-09 19:55:00
1:29 PM,66.2,17.6,15,29.43,10.0,West,11.5,23.0,N/A,,Clear,280,2012-11-09 20:29:00
1:55 PM,66.0,17.1,15,29.43,10.0,SW,8.1,24.2,N/A,,Clear,230,2012-11-09 20:55:00
2:55 PM,64.2,18.9,18,29.43,10.0,WSW,11.5,-,N/A,,Clear,240,2012-11-09 21:55:00
3:12 PM,64.4,17.6,16,29.42,10.0,South,17.3,24.2,N/A,,Clear,170,2012-11-09 22:12:00
3:55 PM,61.7,20.7,21,29.42,10.0,SSW,13.8,-,N/A,,Clear,200,2012-11-09 22:55:00
4:55 PM,57.2,21.0,25,29.45,10.0,SW,8.1,-,N/A,,Clear,220,2012-11-09 23:55:00
5:55 PM,54.0,21.4,28,29.49,10.0,NNE,5.8,-,N/A,,Clear,20,2012-11-10 00:55:00
6:55 PM,50.4,23.4,35,29.52,10.0,NE,10.4,-,N/A,,Clear,50,2012-11-10 01:55:00
7:55 PM,52.0,23.2,33,29.44,10.0,SSE,4.6,-,N/A,,Clear,160,2012-11-10 02:55:00
8:55 PM,48.0,24.1,39,29.41,10.0,East,6.9,-,N/A,,Clear,80,2012-11-10 03:55:00
9:55 PM,53.1,21.6,29,29.38,10.0,SE,17.3,23.0,N/A,,Clear,130,2012-11-10 04:55:00
10:55 PM,52.7,19.4,27,29.36,10.0,SE,19.6,32.2,N/A,,Clear,130,2012-11-10 05:55:00
11:55 PM,52.2,18.5,27,29.35,10.0,SSE,16.1,27.6,N/A,,Clear,150,2012-11-10 06:55:00